Weather in Staraya Chigla

Russia / Voronezh Oblast     51°16′25″N   40°22′50″E
temp.,
°C
wind,
m/s
gust,
m/s
humid.,
%
clouds,
%
prec.,
mm/h
press.,
hPa
HPBL,
m
28 february, sun
sun2800:00−4nnw478029 0.0 1013520
03:00−4nnw468137 0.0 1014497
06:00−5nnw368255 0.0 1015477
09:00−5nw358374 0.0 1016454
12:00−2nw467699 0.0 1016620
15:000nw477293 0.0 1016773
18:00−1nnw258395 0.0 1017177
21:00−2nne258790 0.0 1019339
1 march, mon
mon100:00−3nne348694 0.0 1020409
03:00−5nne348886 0.0 1022325
06:00−6nne348468 0.0 1023314
09:00−6nne347838 0.0 1026382
12:00−4n236969 0.0 1026608
15:00−2nw236582 0.0 1027662
18:00−2wnw247542 0.0 1026224
21:00−2wsw487858 0.0 1026618
2 march, tue
tue200:00−1wsw51174100 0.0 1024546
03:00−1wsw71282100 0.0 1021536
06:00−1wsw81496100 0.3 1018639
09:00+1wsw81687100 0.9 1015712
12:00+1w81497100 0.8 1012671
15:00+1wnw71297100 1.1 1011636
18:000nw51286100 0.6 1011599
21:00−1nw6129085 0.6 1013495
3 march, wed
wed300:00−1wnw5128869 0.0 1013499
03:00−1wnw5119082 0.1 1013515
06:00−2nw61188100 0.1 1013639
09:00−2nw71181100 0.1 1015915
12:00−1nw7107198 0.1 10171006
15:000nnw8116485 0.1 10181266
18:00−1nw5117627 0.0 1019719
21:00−1nw597963 0.1 1021885
4 march, thu
thu400:00−1nw597795 0.1 1022683
03:00−2wnw377595 0.1 1022305
06:00−2w477963 0.0 1022230
09:00−1wsw478031 0.0 1022519
12:00+1wsw69731 0.0 1020679
15:00+3wsw710631 0.0 1017946
18:00+1sw5137510 0.0 1015457
21:00+1sw615775 0.0 1014503